Location: Songkhla
(7.2000°N, 100.6000°E)
Time: 20:24:20
(UTC+07:00)

ISS - Pass Details

Date: 22 April 2026
Orbit: 414 x 424 km, 51.6° (Epoch: 19 May)

Event Time Altitude Azimuth Distance (km) Brightness Sun altitude
Rises 00:54:09 0° 205° (SSW) 2,337 - -68.6°
Reaches altitude 10° 00:56:18 10° 197° (SSW) 1,475 - -68.3°
Maximum altitude 00:59:26 41° 125° (SE) 604 - -68.0°
Drops below altitude 10° 01:02:36 10° 53° (NE) 1,477 - -67.6°
Sets 01:04:45 0° 46° (NE) 2,339 - -67.3°
